Other Public Products
Issued by NWS Grand Forks, ND

Home | Current Version | Previous Version | Graphics & Text | Print | Product List | Glossary On
Versions: 1 2 3 4 5 6 7 8 9 10 11 12 13 14 15 16 17 18 19 20 21 22 23 24 25 26 27 28 29 30 31 32 33 34 35 36 37 38 39 40 41 42 43 44 45 46 47 48 49 50
000
FPUS83 KFGF 211831
OPUFGF
PRAIRIE TO PINES WEATHER ROUNDUP
NATIONAL WEATHER SERVICE EASTERN NORTH DAKOTA/GRAND FORKS ND
100 PM CDT TUE OCT 21 2014

 **SATELLITE DATA USED TO AUGMENT SKY COVER AT AUTOMATED STATIONS**
 *****  WEATHER ACROSS EASTERN NORTH DAKOTA  *****

CITY           SKY/WX    TMP DP  RH WIND       PRES   REMARKS
GRAND FORKS    SUNNY     60  42  51 S23G33    29.94F
6HR MIN TEMP:  37; 6HR MAX TEMP:  60;

GRAND FORKS AF SUNNY     60  43  52 SE23G29   29.93F
GRAND CITY NWS   N/A     61 N/A N/A S20         N/A
BUXTON           N/A     61  41  46 SE21G33     N/A
DEVILS LAKE    SUNNY     63  39  42 SE22G28   29.80F
6HR MIN TEMP:  46; 6HR MAX TEMP:  63;

FARGO          LGT RAIN  63  42  46 SE23G37   29.96F
6HR MIN TEMP:  44; 6HR MAX TEMP:  63; 6HR PCP: TRACE;

WAHPETON ARPT  CLEAR     63  37  39 SE28G33   29.98F
$$

 *****  WEATHER ACROSS CENTRAL AND WESTERN NORTH DAKOTA  *****

CITY           SKY/WX    TMP DP  RH WIND       PRES   REMARKS
JAMESTOWN      SUNNY     67  41  38 SE25G32   29.83F
6HR MIN TEMP:  46; 6HR MAX TEMP:  67; 6HR PCP: TRACE;

BISMARCK       SUNNY     71  43  36 S15       29.75F
6HR MIN TEMP:  45; 6HR MAX TEMP:  71;

MINOT          SUNNY     65  40  39 E12       29.72F
6HR MIN TEMP:  41; 6HR MAX TEMP:  65;

MINOT AFB      SUNNY     64  42  44 S13       29.71F
6HR MIN TEMP:  36; 6HR MAX TEMP:  64;

GARRISON         N/A     64  41  42 SE12      29.72F
6HR MIN TEMP:  41; 6HR MAX TEMP:  64;

WILLISTON      SUNNY     63  41  44 SE9       29.67F
6HR MIN TEMP:  36; 6HR MAX TEMP:  74;

DICKINSON      SUNNY     68  45  43 SE13      29.68F
6HR MIN TEMP:  38; 6HR MAX TEMP:  68;

HETTINGER      SUNNY     70  44  39 S14       29.73F
6HR MIN TEMP:  37; 6HR MAX TEMP:  70;

$$

 *****  OTHER OBSERVATIONS NORTHEAST NORTH DAKOTA  *****

CITY           SKY/WX    TMP DP  RH WIND       PRES   REMARKS
WALHALLA         N/A     55  41  58 SE18G29   29.89F
LANGDON        FAIR      61  39  44 SE28G35   29.85F
CAVALIER       FAIR      57  41  54 SE14G24   29.91F
GRAFTON        FAIR      57  43  58 SE24      29.92F
CANDO          FAIR      64  41  42 SE22      29.81F
FORT TOTTEN    NOT AVBL
ROLLA          FAIR      61  39  44 S21       29.79F
RUGBY          FAIR      63  41  45 SE14G21   29.77F
 ***** THE ABOVE OBSERVATIONS ARE NON NWS ARE NOT QUALITY
        CONTROLLED AND MAY MIS-REPORT RAIN FOR SNOW...
$$

 *****  OTHER OBSERVATIONS SOUTHEAST NORTH DAKOTA *****

CITY           SKY/WX    TMP DP  RH WIND       PRES   REMARKS
COOPERSTOWN    NOT AVBL
VALLEY CITY    FAIR      63  41  45 SE23G29   29.88F
OAKES            N/A     72  45  37 S17G28    29.88F HAZE
GWINNER        CLEAR     64  43  45 SE21      29.91F
SHEYENNE NWR     N/A     64  40  42 SE20      29.95S
BUFFALO          N/A     63  34  33 SE29        N/A
WYNDMERE         N/A     64  39  39 SE17        N/A
 ***** THE ABOVE OBSERVATIONS ARE NON NWS ARE NOT QUALITY
       CONTROLLED AND MAY MIS-REPORT RAIN FOR SNOW...
$$

  *****  WEATHER ACROSS NORTHERN MINNESOTA  *****

CITY           SKY/WX    TMP DP  RH WIND       PRES   REMARKS
FLAG ISLAND    SUNNY     48  41  76 S20       30.05F
WARROAD        SUNNY     54  43  66 SE12      30.05F
ROSEAU         SUNNY     57  43  58 SE15      30.02F
HALLOCK        SUNNY     61  43  51 SE22G29   29.94F
THF RVR FALLS  SUNNY     57  41  54 SE22      29.99F
6HR MIN TEMP:  36; 6HR MAX TEMP:  57;

HALSTAD          N/A     64  37  37 S23         N/A
FOSSTON        SUNNY     59  39  47 SE12G18   30.02F
BAUDETTE       SUNNY     52  38  58 SE13G20   30.09F
6HR MIN TEMP:  34; 6HR MAX TEMP:  52;

WASKISH        SUNNY     54  41  62 SE3G21    30.09F
CROOKSTON      SUNNY     61  41  48 S24       29.97F
$$
  *****  WEATHER ACROSS CENTRAL AND WEST MINNESOTA  *****

CITY           SKY/WX    TMP DP  RH WIND       PRES   REMARKS
BEMIDJI        SUNNY     53  39  60 SE16G22   30.09S
PARK RAPIDS    SUNNY     53  38  56 SE15      30.09F
6HR MIN TEMP:  34; 6HR MAX TEMP:  53;

WADENA         SUNNY     55  39  54 SE17      30.08F
DETROIT LAKES  SUNNY     55  41  58 SE20G28   30.03F
MOORHEAD       SUNNY     63  41  45 SE23G33   29.97F
FERGUS FALLS   SUNNY     61  37  41 SE22G30   30.02F
ELBOW LAKE     FAIR      60  42  50 SE24G30   30.02F
6HR MIN TEMP:  42; 6HR MAX TEMP:  59;

MORRIS MN      SUNNY     63  43  48 SE22G30   30.02F
STAPLES        SUNNY     54  37  54 SE13G18   30.11F
WHEATON        SUNNY     63  41  45 SE24G30   30.00S
$$
  *****  WEATHER ELSEWHERE ACROSS MINNESOTA  *****

CITY           SKY/WX    TMP DP  RH WIND       PRES   REMARKS
DULUTH         CLOUDY    43  35  73 E13       30.22F
6HR MIN TEMP:  42; 6HR MAX TEMP:  44;

INTRNTL FALLS  MOSUNNY   46  35  65 SE17      30.16F
6HR MIN TEMP:  32; 6HR MAX TEMP:  48;

ELY            CLOUDY    41  34  75 SE12      30.23F
CLOQUET        CLOUDY    45  36  70 SE8       30.21F
BRAINERD       SUNNY     51  38  60 SE14G20   30.15F
6HR MIN TEMP:  28; 6HR MAX TEMP:  51;

HIBBING        CLOUDY    45  35  68 SE15G23   30.21F
6HR MIN TEMP:  41; 6HR MAX TEMP:  45;

ALEXANDRIA     SUNNY     57  41  55 SE17G28   30.10F
6HR MIN TEMP:  38; 6HR MAX TEMP:  57;

SAINT CLOUD    SUNNY     57  40  52 SE12      30.16F
6HR MIN TEMP:  38; 6HR MAX TEMP:  57;

MINNEAPOLIS    SUNNY     53  40  61 SE12      30.18F
6HR MIN TEMP:  40; 6HR MAX TEMP:  53;

$$

  *****  WEATHER ACROSS SOUTH DAKOTA  *****

CITY           SKY/WX    TMP DP  RH WIND       PRES   REMARKS
SIOUX FALLS    SUNNY     68  42  38 S15G23    30.03F
6HR MIN TEMP:  42; 6HR MAX TEMP:  68;

BROOKINGS      NOT AVBL
WATERTOWN      SUNNY     69  40  34 S18G29    29.97F
6HR MIN TEMP:  45; 6HR MAX TEMP:  69;

HURON          SUNNY     72  43  35 S16G25    29.92F
6HR MIN TEMP:  50; 6HR MAX TEMP:  72;

SISSETON         N/A     64  42  44 S20G29    29.96F
ABERDEEN       SUNNY     72  43  35 S17G26    29.89F
6HR MIN TEMP:  49; 6HR MAX TEMP:  72;

MITCHELL       SUNNY     73  45  36 S14       29.96F
PIERRE         SUNNY     82  42  24 S25G35    29.81F
6HR MIN TEMP:  50; 6HR MAX TEMP:  82;

MOBRIDGE       SUNNY     73  47  39 S20       29.77F
RAPID CITY     SUNNY     76  46  34 S16       29.80F
6HR MIN TEMP:  47; 6HR MAX TEMP:  76;

$$

  *****  SOME WEATHER IN NEARBY STATES *****

CITY           SKY/WX    TMP DP  RH WIND       PRES   REMARKS
GLASGOW MT     SUNNY     64  44  48 E14       29.61F
6HR MIN TEMP:  45; 6HR MAX TEMP:  64;

GREAT FALLS MT LGT RAIN  56  37  49 NW14      29.69R
6HR MIN TEMP:  50; 6HR MAX TEMP:  60; 6HR PCP: TRACE;

CHEYENNE WY    PTSUNNY   70  33  25 SW21G26   30.02F
6HR MIN TEMP:  45; 6HR MAX TEMP:  72;

SCOTTSBLUFF NE MOSUNNY   69  43  38 SE5       29.93F
6HR MIN TEMP:  42; 6HR MAX TEMP:  69;

OMAHA NE       SUNNY     68  42  38 S8        30.10F
6HR MIN TEMP:  39; 6HR MAX TEMP:  69;

DES MOINES IA  SUNNY     63  43  48 E9        30.15F
6HR MIN TEMP:  43; 6HR MAX TEMP:  64;

DAVENPORT IA   SUNNY     57  38  48 NE12      30.20F
6HR MIN TEMP:  37; 6HR MAX TEMP:  57;

CHICAGO IL     CLOUDY    52  40  63 NE18      30.17S
6HR MIN TEMP:  45; 6HR MAX TEMP:  53;

EAU CLAIRE WI  SUNNY     51  36  56 VRB3      30.22F
6HR MIN TEMP:  35; 6HR MAX TEMP:  51;

LA CROSSE WI   SUNNY     54  37  52 E7        30.22F
6HR MIN TEMP:  36; 6HR MAX TEMP:  55;

$$

  *****  SOME NATIONAL WEATHER *****

CITY           SKY/WX    TMP DP  RH WIND       PRES   REMARKS



USA.gov is the U.S. government's official web portal to all federal, state and local government web resources and services.